sat.trackr.live / text

‹ back to catalog

STARLINK-1372

NORAD 45543 · 2020-025N

PAYLOAD ACTIVE UNKNOWN

§ Identity

Operator
Country
US
Launch date
2020-04-22
Launch site
AFETR
Launch vehicle
Mass (kg)
RCS (m²)

Purposes: comms

External: N2YO · Heavens-Above · Gunter

§ Orbital elements

Epoch: 2026-09-14T03:23:11.985216Z

Period
93.11 min
Inclination
53.1516°
Eccentricity
0.0003326
Mean motion
15.46574175 rev/d
Perigee alt
424.5 km
Apogee alt
429.0 km
Semi-major
6,804.9 km
B*
4.5092e-4
RAAN
294.9813°
Arg perigee
47.8431°
Mean anomaly
312.2859°
Rev number
35,327

§ Raw data

STARLINK-13721 45543U 20025N   26257.14111094  .00022432  00000+0  45092-3 0  99982 45543  53.1516 294.9813 0003326  47.8431 312.2859 15.46574175353276

JSON: /api/v1/satellites/45543 · /tle

For live sub-satellite position, see the globe view (requires WebGL).

§ Visibility from observer

Set your observer location to see the next 7 days of passes ≥ 10°. The values pass through the URL so the page stays shareable.

No JS? Fill the form by hand. The geolocation button needs JavaScript.